Regional Weather Roundup
Issued by NWS

Home | Current Version | Previous Version | Graphics & Text | Print | Product List | Glossary Off
Versions: 1 2 3 4 5 6 7 8 9 10 11 12 13 14 15 16 17 18 19 20 21 22 23 24 25 26 27 28 29 30 31 32 33 34 35 36 37 38 39 40 41 42 43 44 45 46 47 48 49 50

000
ASUS44 KFWD 210715
RWRTX
NORTH TEXAS HOURLY WEATHER ROUNDUP
NATIONAL WEATHER SERVICE FORT WORTH TX
200 AM CDT SAT JUL 21 2018

NOTE: "FAIR" INDICATES FEW OR NO CLOUDS BELOW 12,000 FEET WITH NO
SIGNIFICANT WEATHER AND/OR OBSTRUCTIONS TO VISIBILITY.

TXZ118-119-210800-
DALLAS/FORT WORTH METROPLEX

CITY           SKY/WX    TMP DP  RH WIND       PRES   REMARKS
DFW AIRPORT    FAIR      88  62  41 S9        29.88R
DALLAS LOVE    FAIR      91  63  39 S9        29.89S HX  92
FTW MEACHAM    FAIR      84  63  49 S9        29.90R
DAL-EXECUTIVE  FAIR      88  62  41 S6        29.90R
FTW-ALLIANCE   FAIR      89  61  38 S12       29.89S
FTW-NAS-JRB    FAIR      86  58  38 S3        29.90S
FTW-SPINKS     FAIR      85  62  46 S6        29.92S
ARLINGTON      FAIR      87  65  47 S7        29.90R
GRAND PRAIRIE  FAIR      87  58  37 S6        29.91S
ADDISON        FAIR      90  63  40 S8G16     29.91S HX  90
MESQUITE       FAIR      77  64  64 S7        29.90F
LANCASTER      FAIR      81  64  55 S3        29.92R
$$

TXZ091>094-102>105-117-120-121-131>134-210800-
NORTH CENTRAL TEXAS

CITY           SKY/WX    TMP DP  RH WIND       PRES   REMARKS
SHRMAN/DENISON FAIR      89  59  37 S14       29.88F
GAINESVILLE    FAIR      81  56  41 SW6       29.91S
BOWIE          FAIR      77  58  52 CALM      29.91S
BRIDGEPORT     FAIR      87  55  33 SW8       29.91F
DECATUR        FAIR      88  57  34 S5        29.91S
DENTON         FAIR      84  59  42 CALM      29.89R
MCKINNEY       FAIR      80  64  58 S7        29.89S
BONHAM         FAIR      85  63  47 S14       29.87F
GREENVILLE     FAIR      88  61  40 S8        29.90F
ROCKWALL       FAIR      83  65  54 S7        29.90S
TERRELL        FAIR      81  64  56 S7        29.90S
WAXAHACHIE     FAIR      82  64  54 CALM      29.93R
CLEBURNE       FAIR      84  64  51 S8        29.94S
GRANBURY       FAIR      85  57  39 S5        29.92S
$$

TXZ083>090-098>101-113>116-127>130-139>142-154-155-210800-
WESTERN NORTH TEXAS

CITY           SKY/WX    TMP DP  RH WIND       PRES   REMARKS
WICHITA FALLS  FAIR      88  54  31 S13       29.87F
WF-KICKAPOO    FAIR      87  55  33 SE7       29.91S
VERNON         FAIR      90  50  25 S8        29.90S
ABILENE        FAIR      84  57  39 S9        29.98S
ABILENE-DYESS  FAIR     N/A N/A N/A S13         N/A
GRAHAM         FAIR      84  60  43 S5        29.91S
BRECKENRIDGE   FAIR      87  55  32 S9        29.94S
CISCO          FAIR      86  59  39 S9        29.97S
EASTLAND       FAIR      75  57  53 S3        29.96S
RANGER         FAIR      82  60  47 S7        29.96S
MINERAL WELLS  FAIR      83  57  41 S5        29.90F
STEPHENVILLE   FAIR      84  56  38 CALM      29.98S
COMANCHE       FAIR      87  58  38 S12       29.96S
BROWNWOOD      FAIR      82  57  42 S7        29.97S
COLEMAN        FAIR      86  55  34 S10       29.99S
BRADY          FAIR      82  57  42 S6        30.01S
$$

TXZ143>147-156>162-174-175-210800-
CENTRAL TEXAS

CITY           SKY/WX    TMP DP  RH WIND       PRES   REMARKS
WACO           FAIR      86  68  54 S14       29.92R
WACO-MCGREGOR  FAIR      85  69  58 S10       29.93R
HILLSBORO      FAIR      84  64  51 S7        29.92R
CORSICANA      FAIR      82  68  62 S8        29.92S
MEXIA          FAIR      82  68  62 S8        29.93R
HEARNE         FAIR      79  71  76 S7        29.95S
CAMERON        FAIR      82  72  71 S12       29.94S
TEMPLE         FAIR      83  70  64 S14       29.94S
KILLEEN        FAIR      82  68  61 S9        29.94S
KILLEEN-SKYLRK FAIR      83  70  64 S10       29.95S
FORT HOOD      FAIR      84  68  58 S8        29.91S
GATESVILLE     FAIR      84  66  54 S8        29.96S
HAMILTON       FAIR      83  58  42 S8        29.97S
LAMPASAS       FAIR      83  68  59 SW5       29.96S
$$

TXZ095>097-106>112-122>126-135>138-148>153-164>167-210800-
EAST TEXAS

CITY           SKY/WX    TMP DP  RH WIND       PRES   REMARKS
PARIS          FAIR      84  66  54 SW10      29.87F
SULPHUR SPRNGS FAIR      84  64  50 SW12      29.90F
MOUNT PLEASANT FAIR      83  65  54 SW7       29.89S
GILMER         FAIR     N/A N/A N/A S6        29.90S
MINEOLA        FAIR      84  68  58 SW7       29.89F
TYLER          FAIR      81  70  69 S6        29.91S
LONGVIEW       FAIR      84  70  62 SW12      29.89F
MARSHALL       FAIR      77  69  74 CALM      29.91F
ATHENS         FAIR      81  68  65 CALM      29.91S
PALESTINE      FAIR      82  71  68 S7        29.94S
JACKSONVILLE   FAIR      81  70  70 SW3       29.94F
HENDERSON      FAIR      79  69  69 CALM      29.92F
CENTER         FAIR      81  73  76 S7        29.92F
NACOGDOCHES      N/A     79  75  89 S3        29.93F FOG
LUFKIN         FAIR      78  76  93 S5        29.93S
$$

SUPPLEMENTAL OBSERVATIONS (NWS FORT WORTH AREA)

CITY           SKY/WX    TMP DP  RH WIND       PRES   REMARKS
DENISON DAM      N/A     90  59  35 SW20        N/A
POSSUM KINGDOM   N/A     90  59  35 S10         N/A
GRANBURY         N/A     82  55  39 S3          N/A
MCGREGOR         N/A     84  68  58 S7          N/A
TEMPLE           N/A     82  68  61 S8          N/A
PALESTINE        N/A     82  70  65 S3          N/A
$$

SUPPLEMENTAL OBSERVATIONS (NWS NORMAN AREA)

CITY           SKY/WX    TMP DP  RH WIND       PRES   REMARKS
GOODLETT         N/A     82  48  30 S7        29.92S
ODELL            N/A     89  50  25 S13       29.91S
CROWELL          N/A     85  53  32 S8        29.92F
KNOX CITY        N/A     88  52  29 S14       29.94S
SEYMOUR          N/A     87  51  28 S7        29.92S
MILLERS CREEK    N/A     82  52  34 S6          N/A
$$

SUPPLEMENTAL OBSERVATIONS (NWS SAN ANGELO AREA)

CITY           SKY/WX    TMP DP  RH WIND       PRES   REMARKS
WEINERT          N/A     88  54  31 S13       29.94S
HASKELL          N/A     88  48  25 S12       29.95S
THROCKMORTON     N/A     83  54  36 S7        29.94F
STAMFORD         N/A     85  55  35 S9        29.96S
CLYDE            N/A     84  58  41 S10       30.01S
HAMBY            N/A     84  55  37 S8          N/A
IVIE RESERVOIR   N/A     86  57  37 S10         N/A
COLORADO BEND    N/A     82  63  51 S6G15       N/A
$$

SUPPLEMENTAL OBSERVATIONS (NWS SHREVEPORT AREA)

CITY           SKY/WX    TMP DP  RH WIND       PRES   REMARKS
TEXARKANA        N/A     75  70  83 CALM        N/A
LINDEN           N/A     81  66  61 S2          N/A
CADDO LAKE       N/A     81  70  69 CALM        N/A
LUFKIN           N/A     81  77  89 MISG        N/A
N SABINE NF      N/A     81  73  78 MISG        N/A
$$

SUPPLEMENTAL OBSERVATIONS ARE A COLLECTION OF AUTOMATED INSTRUMENTS
THAT ARE MAINTAINED BY A VARIETY OF FEDERAL AND STATE AGENCIES.
CERTAIN ELEMENTS...SUCH AS HUMIDITY VALUES AND SUSTAINED WIND
SPEEDS...MAY BE APPROXIMATED.




USA.gov is the U.S. government's official web portal to all federal, state and local government web resources and services.